Regional Weather Roundup
Issued by NWS

Home | Current Version | Previous Version | Graphics & Text | Print | Product List | Glossary On
Versions: 1 2 3 4 5 6 7 8 9 10 11 12 13 14 15 16 17 18 19 20 21 22 23 24 25 26 27 28 29 30 31 32 33 34 35 36 37 38 39 40 41 42 43 44 45 46 47 48 49 50
000
ASUS43 KLMK 190402
RWRKY
KENTUCKY REGIONAL WEATHER ROUNDUP
NATIONAL WEATHER SERVICE LOUISVILLE KY
1200 AM EDT SAT AUG 19 2017

NOTE "FAIR" INDICATES FEW OR NO CLOUDS BELOW 12,000 FEET
WITH NO SIGNIFICANT WEATHER AND/OR OBSTRUCTIONS TO VISIBILITY.

KYZ001>023-026-027-061>063-070>075-190500-
WESTERN AND SOUTH CENTRAL KENTUCKY

CITY           SKY/WX    TMP DP  RH WIND       PRES   REMARKS
PADUCAH        FAIR      75  66  73 SW5       29.96S
HENDERSON      FAIR      69  67  93 SW5       29.96S
OWENSBORO      FAIR      72  67  84 SW3       29.96S
HOPKINSVILLE   FAIR      73  67  82 SW3       29.98S
BOWLING GREEN  FAIR      75  68  78 SW5       29.97F
GLASGOW        FAIR      67  67 100 CALM      29.98S
$$

KYZ024-025-028>034-038-045-046-053-190500-
NORTH CENTRAL KENTUCKY

CITY           SKY/WX    TMP DP  RH WIND       PRES   REMARKS
LOUISVILLE/SDF FAIR      75  66  73 SW3       29.94S
LOUISVILLE/LOU FAIR      75  67  76 SW5       29.95S
FORT KNOX      FAIR      67  65  91 CALM      29.95S
$$

KYZ035>037-039>044-047>052-055>060-089>105-190500-
NORTHEAST KENTUCKY

CITY           SKY/WX    TMP DP  RH WIND       PRES   REMARKS
LEXINGTON      FAIR      71  63  75 S6        29.97F
COVINGTON      FAIR      72  66  81 W5        29.94S
FRANKFORT      FAIR      70  64  81 SW3       29.95F
$$

KYZ054-064>069-076>088-106>120-190500-
SOUTHEAST KENTUCKY

CITY           SKY/WX    TMP DP  RH WIND       PRES   REMARKS
JACKSON        FAIR      70  63  78 CALM      30.00R
LONDON         FAIR      67  65  93 CALM      30.01R
SOMERSET       NOT AVBL
MIDDLESBORO    FAIR      67  66  96 CALM      30.02S
MONTICELLO     FAIR      64  63  96 NE8       30.02S FOG
$$




USA.gov is the U.S. government's official web portal to all federal, state and local government web resources and services.